| time (UTC) | temp F | wind direction | speed MPH | gust MPH | rain 1hr in | rain 24hr in | rain mn in | humidity % | barometer mb |
| 20260902223718 | 99 | 148 | 3.0 | 7.0 | 0.00 | 0.00 | 0.00 | 40 | 1008.2 |
| 20260902220408 | 97 | 161 | 2.0 | 6.0 | 0.00 | 0.00 | 0.00 | 43 | 1008.5 |
| 20260902215425 | 97 | 197 | 2.0 | 6.0 | 0.00 | 0.00 | 0.00 | 44 | 1008.5 |
| 20260902214407 | 97 | 209 | 4.0 | 9.0 | 0.00 | 0.00 | 0.00 | 44 | 1008.6 |
| 20260902212305 | 97 | 199 | 4.0 | 10.0 | 0.00 | 0.00 | 0.00 | 46 | 1008.9 |
| 20260902211258 | 98 | 182 | 3.0 | 10.0 | 0.00 | 0.00 | 0.00 | 44 | 1009.0 |
| 20260902210253 | 97 | 193 | 2.0 | 12.0 | 0.00 | 0.00 | 0.00 | 45 | 1009.0 |
| 20260902205236 | 98 | 176 | 3.0 | 12.0 | 0.00 | 0.00 | 0.00 | 44 | 1009.1 |
| 20260902203031 | 101 | 222 | 2.0 | 8.0 | 0.00 | 0.00 | 0.00 | 39 | 1009.3 |
| 20260902200858 | 99 | 261 | 2.0 | 8.0 | 0.00 | 0.00 | 0.00 | 41 | 1009.6 |
| 20260902195914 | 97 | 157 | 2.0 | 6.0 | 0.00 | 0.00 | 0.00 | 42 | 1009.8 |
| 20260902194848 | 97 | 31 | 2.0 | 6.0 | 0.00 | 0.00 | 0.00 | 43 | 1010.0 |
| 20260902193831 | 96 | 56 | 2.0 | 7.0 | 0.00 | 0.00 | 0.00 | 43 | 1010.1 |
| 20260902192834 | 97 | 101 | 2.0 | 7.0 | 0.00 | 0.00 | 0.00 | 43 | 1010.2 |
| 20260902191819 | 97 | 76 | 2.0 | 5.0 | 0.00 | 0.00 | 0.00 | 43 | 1010.4 |
| 20260902190822 | 97 | 47 | 3.0 | 9.0 | 0.00 | 0.00 | 0.00 | 43 | 1010.4 |
| 20260902185844 | 99 | 51 | 1.0 | 9.0 | 0.00 | 0.00 | 0.00 | 41 | 1010.6 |
| 20260902184826 | 100 | 215 | 2.0 | 9.0 | 0.00 | 0.00 | 0.00 | 38 | 1010.7 |
| 20260902183817 | 103 | 201 | 2.0 | 9.0 | 0.00 | 0.00 | 0.00 | 37 | 1010.8 |
| 20260902182755 | 101 | 182 | 3.0 | 8.0 | 0.00 | 0.00 | 0.00 | 38 | 1010.9 |
| 20260902181816 | 101 | 155 | 2.0 | 8.0 | 0.00 | 0.00 | 0.00 | 38 | 1011.1 |
| 20260902180746 | 101 | 196 | 2.0 | 9.0 | 0.00 | 0.00 | 0.00 | 38 | 1011.4 |
| 20260902175748 | 101 | 199 | 2.0 | 8.0 | 0.00 | 0.00 | 0.00 | 39 | 1011.6 |
| 20260902174730 | 100 | 135 | 2.0 | 6.0 | 0.00 | 0.00 | 0.00 | 40 | 1011.8 |
| 20260902172620 | 97 | 302 | 3.0 | 8.0 | 0.00 | 0.00 | 0.00 | 43 | 1012.1 |
| 20260902171635 | 97 | 252 | 2.0 | 7.0 | 0.00 | 0.00 | 0.00 | 43 | 1012.2 |
| 20260902170610 | 98 | 269 | 2.0 | 7.0 | 0.00 | 0.00 | 0.00 | 43 | 1012.4 |
| 20260902165545 | 97 | 238 | 1.0 | 6.0 | 0.00 | 0.00 | 0.00 | 44 | 1012.5 |
| 20260902164554 | 96 | 266 | 2.0 | 10.0 | 0.00 | 0.00 | 0.00 | 45 | 1012.6 |
| 20260902161351 | 94 | 196 | 2.0 | 7.0 | 0.00 | 0.00 | 0.00 | 48 | 1012.8 |
| 20260902160356 | 93 | 272 | 3.0 | 10.0 | 0.00 | 0.00 | 0.00 | 49 | 1012.8 |
| 20260902155332 | 92 | 273 | 2.0 | 10.0 | 0.00 | 0.00 | 0.00 | 51 | 1012.7 |
| 20260902153242 | 90 | 247 | 3.0 | 10.0 | 0.00 | 0.00 | 0.00 | 54 | 1012.6 |
| 20260902152217 | 89 | 275 | 3.0 | 12.0 | 0.00 | 0.00 | 0.00 | 57 | 1012.7 |
| 20260902151212 | 88 | 254 | 3.0 | 12.0 | 0.00 | 0.00 | 0.00 | 60 | 1012.7 |
| 20260902143820 | 86 | 225 | 2.0 | 8.0 | 0.00 | 0.00 | 0.00 | 67 | 1012.9 |
| 20260902142810 | 85 | 257 | 1.0 | 6.0 | 0.00 | 0.00 | 0.00 | 71 | 1012.9 |
| 20260902134357 | 81 | 257 | 1.0 | 7.0 | 0.00 | 0.00 | 0.00 | 78 | 1012.7 |
| 20260902133407 | 80 | 262 | 1.0 | 6.0 | 0.00 | 0.00 | 0.00 | 79 | 1012.7 |
| 20260902132414 | 79 | 214 | 1.0 | 6.0 | 0.00 | 0.00 | 0.00 | 80 | 1012.6 |
| 20260902131340 | 78 | 230 | 1.0 | 3.0 | 0.00 | 0.00 | 0.00 | 81 | 1012.5 |
| 20260902130309 | 77 | 240 | 0.0 | 3.0 | 0.00 | 0.00 | 0.00 | 82 | 1012.4 |
| 20260902125257 | 77 | 254 | 0.0 | 1.0 | 0.00 | 0.00 | 0.00 | 81 | 1012.4 |
| 20260902124222 | 77 | 237 | 0.0 | 0.0 | 0.00 | 0.00 | 0.00 | 81 | 1012.3 |
| 20260902123210 | 77 | 207 | 0.0 | 0.0 | 0.00 | 0.00 | 0.00 | 81 | 1012.1 |
| 20260902122227 | 77 | 236 | 0.0 | 1.0 | 0.00 | 0.00 | 0.00 | 81 | 1012.0 |
| 20260902121239 | 77 | 187 | 0.0 | 0.0 | 0.00 | 0.00 | 0.00 | 80 | 1012.0 |
| 20260902120214 | 77 | 187 | 0.0 | 1.0 | 0.00 | 0.00 | 0.00 | 80 | 1012.0 |
| 20260902115150 | 77 | 187 | 0.0 | 0.0 | 0.00 | 0.00 | 0.00 | 80 | 1012.0 |
| 20260902114120 | 77 | 211 | 0.0 | 0.0 | 0.00 | 0.00 | 0.00 | 79 | 1012.0 |
| 20260902113125 | 77 | 210 | 0.0 | 0.0 | 0.00 | 0.00 | 0.00 | 79 | 1011.9 |
| 20260902105900 | 78 | 311 | 0.0 | 0.0 | 0.00 | 0.00 | 0.00 | 77 | 1011.8 |
| 20260902104908 | 79 | 318 | 0.0 | 1.0 | 0.00 | 0.00 | 0.00 | 76 | 1011.7 |
| 20260902103832 | 79 | 261 | 0.0 | 2.0 | 0.00 | 0.00 | 0.00 | 76 | 1011.7 |
| 20260902102821 | 79 | 239 | 0.0 | 6.0 | 0.00 | 0.00 | 0.00 | 76 | 1011.7 |
| 20260902100613 | 79 | 237 | 1.0 | 7.0 | 0.00 | 0.00 | 0.00 | 76 | 1011.5 |
| 20260902093318 | 79 | 231 | 1.0 | 8.0 | 0.00 | 0.00 | 0.00 | 76 | 1011.5 |
| 20260902091158 | 80 | 254 | 2.0 | 4.0 | 0.00 | 0.00 | 0.00 | 75 | 1011.5 |
| 20260902085107 | 80 | 194 | 1.0 | 7.0 | 0.00 | 0.00 | 0.00 | 73 | 1011.7 |
| 20260902082914 | 80 | 200 | 2.0 | 6.0 | 0.00 | 0.00 | 0.00 | 72 | 1011.8 |
| 20260902081852 | 80 | 210 | 2.0 | 6.0 | 0.00 | 0.00 | 0.00 | 72 | 1011.9 |
| 20260902080904 | 81 | 199 | 1.0 | 6.0 | 0.00 | 0.00 | 0.00 | 72 | 1011.9 |
| 20260902074740 | 81 | 209 | 2.0 | 7.0 | 0.00 | 0.00 | 0.00 | 71 | 1011.8 |
| 20260902073722 | 81 | 174 | 2.0 | 5.0 | 0.00 | 0.00 | 0.00 | 70 | 1011.9 |
| 20260902071528 | 82 | 197 | 2.0 | 8.0 | 0.00 | 0.00 | 0.00 | 70 | 1011.9 |
| 20260902070534 | 82 | 207 | 2.0 | 8.0 | 0.00 | 0.00 | 0.00 | 69 | 1012.0 |
| 20260902064333 | 82 | 210 | 2.0 | 8.0 | 0.00 | 0.00 | 0.00 | 70 | 1012.1 |
| 20260902063318 | 82 | 188 | 2.0 | 8.0 | 0.00 | 0.00 | 0.00 | 71 | 1012.0 |
| 20260902062251 | 82 | 194 | 2.0 | 7.0 | 0.00 | 0.00 | 0.00 | 72 | 1012.0 |
| 20260902061245 | 82 | 180 | 2.0 | 8.0 | 0.00 | 0.00 | 0.00 | 72 | 1012.1 |
| 20260902060227 | 82 | 193 | 2.0 | 8.0 | 0.00 | 0.00 | 0.00 | 72 | 1012.1 |
| 20260902054114 | 82 | 229 | 3.0 | 7.0 | 0.00 | 0.00 | 0.00 | 72 | 1012.2 |
| 20260902053056 | 83 | 176 | 2.0 | 8.0 | 0.00 | 0.00 | 0.00 | 71 | 1012.1 |
| 20260902050919 | 83 | 155 | 3.0 | 7.0 | 0.00 | 0.00 | 0.00 | 70 | 1012.2 |
| 20260902045851 | 84 | 167 | 2.0 | 6.0 | 0.00 | 0.00 | 0.00 | 69 | 1012.1 |
| 20260902044837 | 84 | 206 | 2.0 | 9.0 | 0.00 | 0.00 | 0.00 | 68 | 1012.0 |
| 20260902043829 | 84 | 184 | 3.0 | 9.0 | 0.00 | 0.00 | 0.00 | 67 | 1012.0 |
| 20260902042818 | 84 | 161 | 2.0 | 8.0 | 0.00 | 0.00 | 0.00 | 66 | 1012.0 |
| 20260902041839 | 85 | 127 | 2.0 | 8.0 | 0.00 | 0.00 | 0.00 | 65 | 1012.1 |
| 20260902040854 | 85 | 139 | 3.0 | 7.0 | 0.00 | 0.00 | 0.00 | 64 | 1012.0 |
| 20260902035822 | 85 | 143 | 3.0 | 8.0 | 0.00 | 0.00 | 0.00 | 64 | 1012.0 |
| 20260902033658 | 85 | 156 | 1.0 | 5.0 | 0.00 | 0.00 | 0.00 | 63 | 1011.9 |
| 20260902032652 | 86 | 165 | 2.0 | 5.0 | 0.00 | 0.00 | 0.00 | 62 | 1011.8 |
| 20260902030535 | 86 | 135 | 1.0 | 4.0 | 0.00 | 0.00 | 0.00 | 61 | 1011.4 |
| 20260902025524 | 86 | 107 | 1.0 | 3.0 | 0.00 | 0.00 | 0.00 | 60 | 1011.3 |
| 20260902024521 | 87 | 90 | 1.0 | 5.0 | 0.00 | 0.00 | 0.00 | 59 | 1011.0 |
| 20260902021243 | 88 | 111 | 1.0 | 5.0 | 0.00 | 0.00 | 0.00 | 58 | 1010.3 |
| 20260902020307 | 88 | 137 | 1.0 | 5.0 | 0.00 | 0.00 | 0.00 | 57 | 1010.3 |
| 20260902015308 | 89 | 139 | 1.0 | 5.0 | 0.00 | 0.00 | 0.00 | 57 | 1010.3 |
| 20260902014247 | 89 | 126 | 1.0 | 4.0 | 0.00 | 0.00 | 0.00 | 56 | 1010.1 |
| 20260902013254 | 90 | 121 | 1.0 | 4.0 | 0.00 | 0.00 | 0.00 | 55 | 1010.1 |
| 20260902012311 | 90 | 158 | 1.0 | 4.0 | 0.00 | 0.00 | 0.00 | 55 | 1010.1 |
| 20260902011302 | 91 | 175 | 1.0 | 4.0 | 0.00 | 0.00 | 0.00 | 54 | 1009.9 |
| 20260902010308 | 91 | 149 | 1.0 | 5.0 | 0.00 | 0.00 | 0.00 | 53 | 1009.8 |
| 20260902004208 | 92 | 119 | 2.0 | 6.0 | 0.00 | 0.00 | 0.00 | 51 | 1009.8 |
| 20260902003145 | 92 | 140 | 3.0 | 7.0 | 0.00 | 0.00 | 0.00 | 50 | 1009.9 |
| 20260902001017 | 93 | 112 | 3.0 | 10.0 | 0.00 | 0.00 | 0.00 | 49 | 1009.9 |
| 20260902000011 | 94 | 143 | 4.0 | 11.0 | 0.00 | 0.00 | 0.00 | 48 | 1009.9 |
| 20260901235029 | 94 | 225 | 3.0 | 11.0 | 0.00 | 0.00 | 0.00 | 47 | 1009.9 |
| 20260901232944 | 96 | 136 | 4.0 | 8.0 | 0.00 | 0.00 | 0.00 | 43 | 1009.8 |
| 20260901231928 | 97 | 87 | 2.0 | 9.0 | 0.00 | 0.00 | 0.00 | 40 | 1009.6 |
| 20260901225826 | 100 | 87 | 4.0 | 9.0 | 0.00 | 0.00 | 0.00 | 38 | 1009.6 |
| 20260901224835 | 100 | 98 | 2.0 | 8.0 | 0.00 | 0.00 | 0.00 | 37 | 1009.6 |